Auburn-Lewiston, ME

5:39 AM EST on February 23, 2018 (GMT -0500)
Auburn-Lewiston Municipal

Weather History for KLEW - February, 2012

Change the Weather History Date:

Thursday, February 2, 2012

  Actual Average Record
Temperature  
Mean Temperature 26 °F -  
Max Temperature 30 °F 29 °F 42 °F (1998)
Min Temperature 23 °F 10 °F 0 °F (2015)
Degree Days  
Heating Degree Days 38    
Moisture  
Dew Point 20 °F    
Average Humidity 77    
Maximum Humidity 100    
Minimum Humidity 59    
Precipitation  
Precipitation 0.00 in - - ()
Sea Level Pressure  
Sea Level Pressure 30.05 in    
Wind  
Wind Speed 5 mph (NE)    
Max Wind Speed 16 mph    
Max Gust Speed 20 mph    
Visibility 9 miles    
Events      
Averages and records for this station are not official NWS values.
T = Trace of Precipitation, MM = Missing Value Source: NWS Daily Summary

Daily Weather History Graph

Daily Weather History Graph

Search for Another Location

Airport or City:

Trip Planner

Search our weather history database for the weather conditions in past years. The results will help you decide how hot, cold, wet, or windy it might be!

Date:

Astronomy

Feb. 02, 2012 Rise Set
Actual Time 6:58 AM EST 4:52 PM EST
Civil Twilight 6:27 AM EST 5:22 PM EST
Nautical Twilight 5:52 AM EST 5:57 PM EST
Astronomical Twilight 5:19 AM EST 6:31 PM EST
Moon 11:56 AM EST (2/2) 2:41 AM EST (2/2)
Length of Visible Light 10h 55m
Length of Day
9h 53m
Waxing Gibbous, 73% of the Moon is Illuminated
Feb 2
Waxing Gibbous
Feb 7
Full
Feb 14
Last Quarter
Feb 21
New
Feb 29
First Quarter

Hourly Weather History & Observations

Time (EST) Temp. Windchill Dew Point Humidity Pressure Visibility Wind Dir Wind Speed Gust Speed Precip Events Conditions
12:15 AM 28.4 °F 23.3 °F 26.6 °F 93% 29.88 in 5.0 mi SSE 4.6 mph - N/A   Overcast
12:35 AM 28.4 °F - 26.6 °F 93% 29.88 in 5.0 mi Calm Calm - N/A   Overcast
12:55 AM 28.4 °F - 26.6 °F 93% 29.89 in 4.0 mi Calm Calm - N/A   Overcast
1:15 AM 28.4 °F - 26.6 °F 93% 29.90 in 4.0 mi Calm Calm - N/A   Overcast
1:35 AM 28.4 °F - 26.6 °F 93% 29.91 in 5.0 mi Calm Calm - N/A   Overcast
1:55 AM 28.4 °F - 26.6 °F 93% 29.92 in 5.0 mi Calm Calm - N/A   Overcast
2:15 AM 30.2 °F - 28.4 °F 93% 29.92 in 5.0 mi Calm Calm - N/A   Overcast
2:35 AM 28.4 °F - 28.4 °F 100% 29.92 in 5.0 mi Calm Calm - N/A   Overcast
2:55 AM 28.4 °F - 28.4 °F 100% 29.93 in 5.0 mi Calm Calm - N/A   Overcast
3:15 AM 28.4 °F - 28.4 °F 100% 29.94 in 5.0 mi Calm Calm - N/A   Overcast
3:35 AM 28.4 °F - 26.6 °F 93% 29.95 in 5.0 mi Calm Calm - N/A   Overcast
3:55 AM 28.4 °F - 26.6 °F 93% 29.96 in 5.0 mi Calm Calm - N/A   Overcast
4:15 AM 28.4 °F 23.3 °F 28.4 °F 100% 29.98 in 7.0 mi NE 4.6 mph - N/A   Overcast
4:35 AM 28.4 °F 24.6 °F 26.6 °F 93% 29.99 in 10.0 mi NNE 3.5 mph - N/A   Overcast
4:55 AM 26.6 °F - 24.8 °F 93% 30.00 in 10.0 mi Calm Calm - N/A   Overcast
5:15 AM 26.6 °F 20.0 °F 21.2 °F 80% 30.00 in 10.0 mi ENE 5.8 mph - N/A   Overcast
5:35 AM 24.8 °F 16.1 °F 21.2 °F 86% 30.01 in 10.0 mi NE 8.1 mph - N/A   Overcast
5:55 AM 24.8 °F 17.9 °F 21.2 °F 86% 30.01 in 10.0 mi NE 5.8 mph - N/A   Overcast
6:15 AM 24.8 °F 20.5 °F 21.2 °F 86% 30.03 in 10.0 mi NE 3.5 mph - N/A   Overcast
6:35 AM 24.8 °F 17.9 °F 19.4 °F 80% 30.03 in 10.0 mi NE 5.8 mph - N/A   Overcast
6:55 AM 24.8 °F 17.9 °F 21.2 °F 86% 30.03 in 10.0 mi NE 5.8 mph - N/A   Overcast
7:16 AM 24.8 °F 16.1 °F 19.4 °F 80% 30.04 in 10.0 mi NE 8.1 mph - N/A   Overcast
7:35 AM 24.8 °F 17.9 °F 19.4 °F 80% 30.04 in 10.0 mi NNE 5.8 mph - N/A   Overcast
7:55 AM 24.8 °F 19.1 °F 19.4 °F 80% 30.05 in 10.0 mi NE 4.6 mph - N/A   Overcast
8:15 AM 24.8 °F 20.5 °F 21.2 °F 86% 30.06 in 10.0 mi NE 3.5 mph - N/A   Overcast
8:35 AM 24.8 °F 19.1 °F 19.4 °F 80% 30.07 in 10.0 mi NNE 4.6 mph - N/A   Overcast
8:55 AM 24.8 °F 17.9 °F 21.2 °F 86% 30.07 in 10.0 mi NE 5.8 mph - N/A   Overcast
9:15 AM 24.8 °F 19.1 °F 21.2 °F 86% 30.07 in 10.0 mi NNE 4.6 mph - N/A   Overcast
9:35 AM 26.6 °F 17.5 °F 19.4 °F 74% 30.07 in 10.0 mi North 9.2 mph - N/A   Overcast
9:55 AM 26.6 °F 17.5 °F 19.4 °F 74% 30.07 in 10.0 mi NNE 9.2 mph - N/A   Overcast
10:15 AM 26.6 °F 20.0 °F 21.2 °F 80% 30.07 in 10.0 mi NNE 5.8 mph - N/A   Overcast
10:35 AM 26.6 °F 16.2 °F 19.4 °F 74% 30.07 in 10.0 mi NNE 11.5 mph - N/A   Overcast
10:55 AM 26.6 °F 16.8 °F 21.2 °F 80% 30.07 in 10.0 mi NNE 10.4 mph - N/A   Overcast
11:15 AM 26.6 °F 17.5 °F 21.2 °F 80% 30.07 in 10.0 mi NNE 9.2 mph - N/A   Overcast
11:35 AM 26.6 °F 16.8 °F 19.4 °F 74% 30.07 in 10.0 mi North 10.4 mph - N/A   Overcast
11:55 AM 26.6 °F 17.5 °F 19.4 °F 74% 30.07 in 10.0 mi NNE 9.2 mph - N/A   Overcast
12:15 PM 26.6 °F 19.1 °F 19.4 °F 74% 30.06 in 10.0 mi NNE 6.9 mph - N/A   Overcast
12:35 PM 26.6 °F 16.8 °F 19.4 °F 74% 30.04 in 10.0 mi NE 10.4 mph - N/A   Overcast
12:55 PM 28.4 °F 18.0 °F 19.4 °F 69% 30.05 in 10.0 mi NE 12.7 mph - N/A   Overcast
1:15 PM 28.4 °F 19.1 °F 19.4 °F 69% 30.05 in 10.0 mi NNE 10.4 mph - N/A   Overcast
1:35 PM 28.4 °F 21.2 °F 19.4 °F 69% 30.05 in 10.0 mi ENE 6.9 mph - N/A   Overcast
1:55 PM 28.4 °F 22.2 °F 19.4 °F 69% 30.05 in 10.0 mi NE 5.8 mph - N/A   Overcast
2:15 PM 28.4 °F 22.2 °F 19.4 °F 69% 30.05 in 10.0 mi ENE 5.8 mph - N/A   Overcast
2:35 PM 28.4 °F 22.2 °F 19.4 °F 69% 30.06 in 10.0 mi ENE 5.8 mph - N/A   Overcast
2:55 PM 28.4 °F 23.3 °F 17.6 °F 64% 30.07 in 10.0 mi ENE 4.6 mph - N/A   Overcast
3:15 PM 28.4 °F 23.3 °F 17.6 °F 64% 30.07 in 10.0 mi NE 4.6 mph - N/A   Overcast
3:35 PM 28.4 °F 23.3 °F 19.4 °F 69% 30.07 in 10.0 mi East 4.6 mph - N/A   Overcast
3:55 PM 28.4 °F 22.2 °F 17.6 °F 64% 30.08 in 10.0 mi East 5.8 mph - N/A   Overcast
4:15 PM 28.4 °F 24.6 °F 17.6 °F 64% 30.08 in 10.0 mi ENE 3.5 mph - N/A   Overcast
4:35 PM 28.4 °F 24.6 °F 17.6 °F 64% 30.08 in 10.0 mi NE 3.5 mph - N/A   Overcast
4:55 PM 28.4 °F - 17.6 °F 64% 30.09 in 10.0 mi Calm Calm - N/A   Overcast
5:15 PM 28.4 °F 24.6 °F 17.6 °F 64% 30.09 in 10.0 mi NE 3.5 mph - N/A   Overcast
5:35 PM 28.4 °F 22.2 °F 17.6 °F 64% 30.10 in 10.0 mi NE 5.8 mph - N/A   Overcast
5:55 PM 28.4 °F 20.4 °F 15.8 °F 59% 30.11 in 10.0 mi NNE 8.1 mph - N/A   Overcast
6:15 PM 26.6 °F 15.2 °F 15.8 °F 64% 30.12 in 10.0 mi NNE 13.8 mph - N/A   Overcast
6:35 PM 26.6 °F 14.3 °F 15.8 °F 64% 30.13 in 10.0 mi NNE 16.1 mph - N/A   Overcast
6:55 PM 26.6 °F 16.2 °F 15.8 °F 64% 30.14 in 10.0 mi NNE 11.5 mph 16.1 mph N/A   Overcast
7:15 PM 24.8 °F 12.4 °F 14.0 °F 64% 30.14 in 10.0 mi NNE 15.0 mph 19.6 mph N/A   Overcast
7:35 PM 24.8 °F 15.3 °F 14.0 °F 64% 30.15 in 10.0 mi NNE 9.2 mph - N/A   Overcast
7:55 PM 24.8 °F 12.9 °F 12.2 °F 59% 30.15 in 10.0 mi NNE 13.8 mph - N/A   Overcast
8:15 PM 24.8 °F 14.0 °F 14.0 °F 64% 30.16 in 10.0 mi NNE 11.5 mph - N/A   Overcast
8:35 PM 24.8 °F 14.0 °F 12.2 °F 59% 30.16 in 10.0 mi NNE 11.5 mph 19.6 mph N/A   Overcast
8:55 PM 24.8 °F 14.6 °F 12.2 °F 59% 30.17 in 10.0 mi NNE 10.4 mph 19.6 mph N/A   Overcast
9:15 PM 24.8 °F 14.6 °F 12.2 °F 59% 30.17 in 10.0 mi North 10.4 mph - N/A   Overcast
9:35 PM 23.0 °F 13.1 °F 14.0 °F 68% 30.17 in 10.0 mi North 9.2 mph - N/A   Overcast
9:55 PM 23.0 °F 10.6 °F 14.0 °F 68% 30.18 in 10.0 mi North 13.8 mph - N/A   Overcast
10:15 PM 23.0 °F 13.1 °F 12.2 °F 63% 30.19 in 10.0 mi NNE 9.2 mph - N/A   Overcast
10:35 PM 23.0 °F 11.1 °F 12.2 °F 63% 30.19 in 10.0 mi North 12.7 mph 19.6 mph N/A   Overcast
10:55 PM 21.2 °F 10.1 °F 12.2 °F 68% 30.20 in 10.0 mi NNE 10.4 mph - N/A   Overcast
11:15 PM 21.2 °F 8.9 °F 10.4 °F 63% 30.20 in 10.0 mi NNE 12.7 mph - N/A   Overcast
11:35 PM 21.2 °F 9.5 °F 10.4 °F 63% 30.20 in 10.0 mi North 11.5 mph - N/A   Mostly Cloudy
11:55 PM 21.2 °F 10.1 °F 10.4 °F 63% 30.20 in 10.0 mi NNE 10.4 mph - N/A   Mostly Cloudy